Time,TemperatureF,DewpointF,PressureIn,WindDirection,WindDirectionDegrees,WindSpeedMPH,WindSpeedGustMPH,Humidity,HourlyPrecipIn,Conditions,Clouds,dailyrainin,SoftwareType,DateUTC
2013-06-28 00:00:00,64.6,53.0,30.25,NNW,340,0.0,0.0,66,0.00,,SCT,0.00,VWS V14.01,2013-06-28 07:00:00,
2013-06-28 00:05:00,64.4,53.2,30.25,NNW,342,0.0,5.4,67,0.00,,SCT,0.00,VWS V14.01,2013-06-28 07:05:00,
2013-06-28 00:11:00,64.2,53.0,30.25,NW,321,4.0,5.4,67,0.00,,SCT,0.00,VWS V14.01,2013-06-28 07:11:00,
2013-06-28 00:15:00,64.0,53.3,30.25,NNW,335,4.9,7.6,68,0.00,,SCT,0.00,VWS V14.01,2013-06-28 07:15:00,
2013-06-28 00:16:00,64.0,53.3,30.25,NW,324,0.0,4.9,68,0.00,,SCT,0.00,VWS V14.01,2013-06-28 07:16:00,
2013-06-28 00:21:00,63.9,53.1,30.25,NNW,340,0.0,6.3,68,0.00,,SCT,0.00,VWS V14.01,2013-06-28 07:21:00,
2013-06-28 00:26:00,63.9,53.5,30.25,NW,307,3.6,6.3,69,0.00,,SCT,0.00,VWS V14.01,2013-06-28 07:26:00,
2013-06-28 00:30:00,63.9,53.5,30.25,NW,322,5.8,6.3,69,0.00,,SCT,0.00,VWS V14.01,2013-06-28 07:30:00,
2013-06-28 00:31:00,63.9,53.5,30.25,NW,317,5.4,5.8,69,0.00,,SCT,0.00,VWS V14.01,2013-06-28 07:31:00,
2013-06-28 00:36:00,63.7,53.3,30.25,NNW,338,0.0,6.3,69,0.00,,SCT,0.00,VWS V14.01,2013-06-28 07:36:00,
2013-06-28 00:41:00,63.5,53.2,30.25,NNW,335,0.0,6.3,69,0.00,,SCT,0.00,VWS V14.01,2013-06-28 07:41:00,
2013-06-28 00:45:00,63.3,53.0,30.25,NW,326,3.6,7.2,69,0.00,,SCT,0.00,VWS V14.01,2013-06-28 07:45:00,
2013-06-28 00:46:00,63.3,53.0,30.25,NW,325,3.6,4.0,69,0.00,,SCT,0.00,VWS V14.01,2013-06-28 07:46:00,
2013-06-28 00:51:00,63.1,53.2,30.25,NW,324,3.1,5.8,70,0.00,,SCT,0.00,VWS V14.01,2013-06-28 07:51:00,
2013-06-28 00:56:00,63.0,53.0,30.25,NNW,341,3.6,5.8,70,0.00,,SCT,0.00,VWS V14.01,2013-06-28 07:56:00,
2013-06-28 01:00:00,63.0,53.0,30.25,NW,312,0.0,5.8,70,0.00,,SCT,0.00,VWS V14.01,2013-06-28 08:00:00,
2013-06-28 01:01:00,63.0,53.0,30.25,NNW,331,0.0,0.0,70,0.00,,SCT,0.00,VWS V14.01,2013-06-28 08:01:00,
2013-06-28 01:06:00,62.6,53.1,30.25,West,278,2.2,6.7,71,0.00,,SCT,0.00,VWS V14.01,2013-06-28 08:06:00,
2013-06-28 01:11:00,62.6,53.1,30.25,NNW,341,0.0,6.7,71,0.00,,SCT,0.00,VWS V14.01,2013-06-28 08:11:00,
2013-06-28 01:15:00,62.4,53.3,30.25,NW,326,0.0,6.7,72,0.00,,SCT,0.00,VWS V14.01,2013-06-28 08:15:00,
2013-06-28 01:16:00,62.4,53.3,30.25,NNW,346,4.5,6.7,72,0.00,,SCT,0.00,VWS V14.01,2013-06-28 08:16:00,
2013-06-28 01:21:00,62.2,53.1,30.25,NNW,343,4.0,6.7,72,0.00,,SCT,0.00,VWS V14.01,2013-06-28 08:21:00,
2013-06-28 01:26:00,62.1,53.3,30.25,NNW,327,5.4,6.7,73,0.00,,SCT,0.00,VWS V14.01,2013-06-28 08:26:00,
2013-06-28 01:30:00,61.9,53.1,30.25,NNW,342,4.0,8.3,73,0.00,,SCT,0.00,VWS V14.01,2013-06-28 08:30:00,
2013-06-28 01:32:00,61.9,53.1,30.25,North,353,4.0,5.4,73,0.00,,SCT,0.00,VWS V14.01,2013-06-28 08:32:00,
2013-06-28 01:37:00,61.7,53.0,30.25,NW,310,0.0,8.3,73,0.00,,SCT,0.00,VWS V14.01,2013-06-28 08:37:00,
2013-06-28 01:42:00,61.7,53.3,30.25,NNW,337,0.0,8.3,74,0.00,,SCT,0.00,VWS V14.01,2013-06-28 08:42:00,
2013-06-28 01:45:00,61.7,53.3,30.25,NNW,333,0.0,8.3,74,0.00,,SCT,0.00,VWS V14.01,2013-06-28 08:45:00,
2013-06-28 01:47:00,61.7,53.3,30.25,NNW,334,0.0,0.0,74,0.00,,SCT,0.00,VWS V14.01,2013-06-28 08:47:00,
2013-06-28 01:52:00,61.5,53.2,30.25,North,353,0.0,0.0,74,0.00,,SCT,0.00,VWS V14.01,2013-06-28 08:52:00,
2013-06-28 01:57:00,61.3,53.0,30.25,NNW,332,0.0,0.0,74,0.00,,SCT,0.00,VWS V14.01,2013-06-28 08:57:00,
2013-06-28 02:00:00,61.3,53.0,30.25,NW,324,0.0,0.0,74,0.00,,SCT,0.00,VWS V14.01,2013-06-28 09:00:00,
2013-06-28 02:02:00,61.3,53.0,30.25,NW,324,0.0,0.0,74,0.00,,SCT,0.00,VWS V14.01,2013-06-28 09:02:00,
2013-06-28 02:03:00,61.3,53.0,30.25,NNW,336,0.0,0.0,74,0.00,,SCT,0.00,VWS V14.01,2013-06-28 09:03:00,
2013-06-28 02:08:00,61.2,52.8,30.25,NW,321,0.0,0.0,74,0.00,,SCT,0.00,VWS V14.01,2013-06-28 09:08:00,
2013-06-28 02:13:00,61.0,53.0,30.25,NW,316,0.0,0.0,75,0.00,,SCT,0.00,VWS V14.01,2013-06-28 09:13:00,
2013-06-28 02:15:00,61.0,53.0,30.25,NW,318,0.0,0.0,75,0.00,,SCT,0.00,VWS V14.01,2013-06-28 09:15:00,
2013-06-28 02:19:00,61.0,53.0,30.25,NW,318,0.0,0.0,75,0.00,,SCT,0.00,VWS V14.01,2013-06-28 09:19:00,
2013-06-28 02:24:00,61.0,53.0,30.25,NW,318,0.0,0.0,75,0.00,,SCT,0.00,VWS V14.01,2013-06-28 09:24:00,
2013-06-28 02:29:00,61.0,53.0,30.25,NW,318,0.0,0.0,75,0.00,,SCT,0.00,VWS V14.01,2013-06-28 09:29:00,
2013-06-28 02:30:00,61.0,53.0,30.25,NW,318,0.0,0.0,75,0.00,,SCT,0.00,VWS V14.01,2013-06-28 09:30:00,
2013-06-28 02:34:00,60.8,52.8,30.25,NW,318,0.0,0.0,75,0.00,,SCT,0.00,VWS V14.01,2013-06-28 09:34:00,
2013-06-28 02:39:00,60.8,52.8,30.25,NW,318,0.0,0.0,75,0.00,,SCT,0.00,VWS V14.01,2013-06-28 09:39:00,
2013-06-28 02:44:00,60.6,53.0,30.25,NW,318,0.0,0.0,76,0.00,,SCT,0.00,VWS V14.01,2013-06-28 09:44:00,
2013-06-28 02:45:00,60.6,53.0,30.25,NW,318,0.0,0.0,76,0.00,,SCT,0.00,VWS V14.01,2013-06-28 09:45:00,
2013-06-28 02:49:00,60.4,52.8,30.25,NW,318,0.0,0.0,76,0.00,,SCT,0.00,VWS V14.01,2013-06-28 09:49:00,
2013-06-28 02:54:00,60.4,52.8,30.25,NW,318,0.0,0.0,76,0.00,,SCT,0.00,VWS V14.01,2013-06-28 09:54:00,
2013-06-28 03:00:00,60.3,52.7,30.25,NW,318,0.0,0.0,76,0.00,,SCT,0.00,VWS V14.01,2013-06-28 10:00:00,
2013-06-28 03:05:00,60.1,52.5,30.25,NW,318,0.0,0.0,76,0.00,,SCT,0.00,VWS V14.01,2013-06-28 10:05:00,
2013-06-28 03:10:00,59.9,52.7,30.25,NW,318,0.0,0.0,77,0.00,,SCT,0.00,VWS V14.01,2013-06-28 10:10:00,
2013-06-28 03:15:00,59.9,52.7,30.25,NW,318,0.0,0.0,77,0.00,,SCT,0.00,VWS V14.01,2013-06-28 10:15:00,
2013-06-28 03:20:00,59.9,52.7,30.25,NW,318,0.0,0.0,77,0.00,,SCT,0.00,VWS V14.01,2013-06-28 10:20:00,
2013-06-28 03:25:00,59.9,52.7,30.25,NW,318,0.0,0.0,77,0.00,,SCT,0.00,VWS V14.01,2013-06-28 10:25:00,
2013-06-28 03:30:00,59.9,52.7,30.25,NW,318,0.0,0.0,77,0.00,,SCT,0.00,VWS V14.01,2013-06-28 10:30:00,
2013-06-28 03:35:00,59.7,52.5,30.25,NW,318,0.0,0.0,77,0.00,,SCT,0.00,VWS V14.01,2013-06-28 10:35:00,
2013-06-28 03:40:00,59.7,52.5,30.25,NW,318,0.0,0.0,77,0.00,,SCT,0.00,VWS V14.01,2013-06-28 10:40:00,
2013-06-28 03:45:00,59.7,52.9,30.25,NW,318,0.0,0.0,78,0.00,,SCT,0.00,VWS V14.01,2013-06-28 10:45:00,
2013-06-28 03:46:00,59.7,52.9,30.25,NW,318,0.0,0.0,78,0.00,,SCT,0.00,VWS V14.01,2013-06-28 10:46:00,
2013-06-28 03:51:00,59.5,52.7,30.25,NW,318,0.0,0.0,78,0.00,,SCT,0.00,VWS V14.01,2013-06-28 10:51:00,
2013-06-28 03:56:00,59.5,52.7,30.25,NW,318,0.0,0.0,78,0.00,,SCT,0.00,VWS V14.01,2013-06-28 10:56:00,
2013-06-28 04:00:00,59.4,52.5,30.25,NW,318,0.0,0.0,78,0.00,,SCT,0.00,VWS V14.01,2013-06-28 11:00:00,
2013-06-28 04:01:00,59.4,52.5,30.25,NW,318,0.0,0.0,78,0.00,,SCT,0.00,VWS V14.01,2013-06-28 11:01:00,
2013-06-28 04:06:00,59.2,52.7,30.25,NW,318,0.0,0.0,79,0.00,,SCT,0.00,VWS V14.01,2013-06-28 11:06:00,
2013-06-28 04:11:00,59.2,52.7,30.25,NW,318,0.0,0.0,79,0.00,,SCT,0.00,VWS V14.01,2013-06-28 11:11:00,
2013-06-28 04:15:00,59.2,53.0,30.25,NW,318,0.0,0.0,80,0.00,,SCT,0.00,VWS V14.01,2013-06-28 11:15:00,
2013-06-28 04:16:00,59.2,53.0,30.25,NW,318,0.0,0.0,80,0.00,,SCT,0.00,VWS V14.01,2013-06-28 11:16:00,
2013-06-28 04:21:00,59.0,52.8,30.25,NW,318,0.0,0.0,80,0.00,,SCT,0.00,VWS V14.01,2013-06-28 11:21:00,
2013-06-28 04:26:00,59.0,52.8,30.25,NW,318,0.0,0.0,80,0.00,,SCT,0.00,VWS V14.01,2013-06-28 11:26:00,
2013-06-28 04:30:00,58.8,53.0,30.25,NW,318,0.0,0.0,81,0.00,,SCT,0.00,VWS V14.01,2013-06-28 11:30:00,
2013-06-28 04:31:00,58.8,53.0,30.25,NW,318,0.0,0.0,81,0.00,,SCT,0.00,VWS V14.01,2013-06-28 11:31:00,
2013-06-28 04:37:00,58.8,53.0,30.25,NW,318,0.0,0.0,81,0.00,,SCT,0.00,VWS V14.01,2013-06-28 11:37:00,
2013-06-28 04:42:00,58.8,53.0,30.25,NW,318,0.0,0.0,81,0.00,,SCT,0.00,VWS V14.01,2013-06-28 11:42:00,
2013-06-28 04:45:00,58.8,53.0,30.25,NW,318,0.0,0.0,81,0.00,,SCT,0.00,VWS V14.01,2013-06-28 11:45:00,
2013-06-28 04:47:00,58.8,53.0,30.25,NW,318,0.0,0.0,81,0.00,,SCT,0.00,VWS V14.01,2013-06-28 11:47:00,
2013-06-28 04:52:00,58.8,53.0,30.25,NW,318,0.0,0.0,81,0.00,,SCT,0.00,VWS V14.01,2013-06-28 11:52:00,
2013-06-28 04:57:00,58.8,53.3,30.25,NW,318,0.0,0.0,82,0.00,,SCT,0.00,VWS V14.01,2013-06-28 11:57:00,
2013-06-28 05:00:00,58.8,53.3,30.25,NW,318,0.0,0.0,82,0.00,,SCT,0.00,VWS V14.01,2013-06-28 12:00:00,
2013-06-28 05:02:00,58.8,53.3,30.25,NW,318,0.0,0.0,82,0.00,,SCT,0.00,VWS V14.01,2013-06-28 12:02:00,
2013-06-28 05:07:00,58.8,53.3,30.25,NW,318,0.0,0.0,82,0.00,,SCT,0.00,VWS V14.01,2013-06-28 12:07:00,
2013-06-28 05:12:00,58.8,53.3,30.25,NW,318,0.0,0.0,82,0.00,,SCT,0.00,VWS V14.01,2013-06-28 12:12:00,
2013-06-28 05:15:00,58.8,53.3,30.25,NW,318,0.0,0.0,82,0.00,,SCT,0.00,VWS V14.01,2013-06-28 12:15:00,
2013-06-28 05:17:00,58.8,53.3,30.25,NW,318,0.0,0.0,82,0.00,,SCT,0.00,VWS V14.01,2013-06-28 12:17:00,
2013-06-28 05:23:00,58.6,53.2,30.25,NW,318,0.0,0.0,82,0.00,,SCT,0.00,VWS V14.01,2013-06-28 12:23:00,
2013-06-28 05:28:00,58.6,53.2,30.25,NW,318,0.0,0.0,82,0.00,,SCT,0.00,VWS V14.01,2013-06-28 12:28:00,
2013-06-28 05:30:00,58.6,53.2,30.25,NW,318,0.0,0.0,82,0.00,,SCT,0.00,VWS V14.01,2013-06-28 12:30:00,
2013-06-28 05:33:00,58.6,53.2,30.25,NW,318,0.0,0.0,82,0.00,,SCT,0.00,VWS V14.01,2013-06-28 12:33:00,
2013-06-28 05:38:00,58.6,53.2,30.25,NW,318,0.0,0.0,82,0.00,,SCT,0.00,VWS V14.01,2013-06-28 12:38:00,
2013-06-28 05:43:00,58.6,53.2,30.25,NW,318,0.0,0.0,82,0.00,,SCT,0.00,VWS V14.01,2013-06-28 12:43:00,
2013-06-28 05:45:00,58.6,53.2,30.25,NW,318,0.0,0.0,82,0.00,,SCT,0.00,VWS V14.01,2013-06-28 12:45:00,
2013-06-28 05:48:00,58.5,53.3,30.25,NW,318,0.0,0.0,83,0.00,,SCT,0.00,VWS V14.01,2013-06-28 12:48:00,
2013-06-28 05:53:00,58.5,53.3,30.25,NW,318,0.0,0.0,83,0.00,,SCT,0.00,VWS V14.01,2013-06-28 12:53:00,
2013-06-28 05:58:00,58.5,53.3,30.25,NW,318,0.0,0.0,83,0.00,,SCT,0.00,VWS V14.01,2013-06-28 12:58:00,
2013-06-28 06:00:00,58.5,53.3,30.25,NW,318,0.0,0.0,83,0.00,,SCT,0.00,VWS V14.01,2013-06-28 13:00:00,
2013-06-28 06:03:00,58.5,53.0,30.25,NW,318,0.0,0.0,82,0.00,,SCT,0.00,VWS V14.01,2013-06-28 13:03:00,
2013-06-28 06:08:00,58.5,53.0,30.25,NW,318,0.0,0.0,82,0.00,,SCT,0.00,VWS V14.01,2013-06-28 13:08:00,
2013-06-28 06:13:00,58.5,53.0,30.25,NW,318,0.0,0.0,82,0.00,,SCT,0.00,VWS V14.01,2013-06-28 13:13:00,
2013-06-28 06:15:00,58.5,53.0,30.25,NW,318,0.0,0.0,82,0.00,,SCT,0.00,VWS V14.01,2013-06-28 13:15:00,
2013-06-28 06:19:00,58.5,53.0,30.25,NW,318,0.0,0.0,82,0.00,,SCT,0.00,VWS V14.01,2013-06-28 13:19:00,
2013-06-28 06:24:00,58.5,53.0,30.25,NW,318,0.0,0.0,82,0.00,,SCT,0.00,VWS V14.01,2013-06-28 13:24:00,
2013-06-28 06:29:00,58.5,53.0,30.25,NW,318,0.0,0.0,82,0.00,,SCT,0.00,VWS V14.01,2013-06-28 13:29:00,
2013-06-28 06:30:00,58.5,53.0,30.25,NW,318,0.0,0.0,82,0.00,,SCT,0.00,VWS V14.01,2013-06-28 13:30:00,
2013-06-28 06:34:00,58.5,53.3,30.25,NW,318,0.0,0.0,83,0.00,,SCT,0.00,VWS V14.01,2013-06-28 13:34:00,
2013-06-28 06:39:00,58.5,53.3,30.25,NW,318,0.0,0.0,83,0.00,,SCT,0.00,VWS V14.01,2013-06-28 13:39:00,
2013-06-28 06:44:00,58.6,53.5,30.25,NW,318,0.0,0.0,83,0.00,,SCT,0.00,VWS V14.01,2013-06-28 13:44:00,
2013-06-28 06:45:00,58.6,53.5,30.25,NW,318,0.0,0.0,83,0.00,,SCT,0.00,VWS V14.01,2013-06-28 13:45:00,
2013-06-28 06:49:00,58.6,53.5,30.25,NW,318,0.0,0.0,83,0.00,,SCT,0.00,VWS V14.01,2013-06-28 13:49:00,
2013-06-28 06:54:00,58.6,53.5,30.25,NW,318,0.0,0.0,83,0.00,,SCT,0.00,VWS V14.01,2013-06-28 13:54:00,
2013-06-28 06:59:00,58.8,53.7,30.25,NW,318,0.0,0.0,83,0.00,,SCT,0.00,VWS V14.01,2013-06-28 13:59:00,
2013-06-28 07:00:00,58.8,53.7,30.25,NW,318,0.0,0.0,83,0.00,,SCT,0.00,VWS V14.01,2013-06-28 14:00:00,
2013-06-28 07:04:00,58.8,53.7,30.25,NW,318,0.0,0.0,83,0.00,,SCT,0.00,VWS V14.01,2013-06-28 14:04:00,
2013-06-28 07:10:00,58.8,53.7,30.25,NW,318,0.0,0.0,83,0.00,,SCT,0.00,VWS V14.01,2013-06-28 14:10:00,
2013-06-28 07:15:00,58.8,53.7,30.25,NW,318,0.0,0.0,83,0.00,,SCT,0.00,VWS V14.01,2013-06-28 14:15:00,
2013-06-28 07:20:00,59.0,53.8,30.25,NW,318,0.0,0.0,83,0.00,,SCT,0.00,VWS V14.01,2013-06-28 14:20:00,
2013-06-28 07:25:00,59.0,53.5,30.25,NW,318,0.0,0.0,82,0.00,,SCT,0.00,VWS V14.01,2013-06-28 14:25:00,
2013-06-28 07:30:00,59.2,53.7,30.25,NW,318,0.0,0.0,82,0.00,,SCT,0.00,VWS V14.01,2013-06-28 14:30:00,
2013-06-28 07:35:00,59.2,53.7,30.28,NW,318,0.0,0.0,82,0.00,,SCT,0.00,VWS V14.01,2013-06-28 14:35:00,
2013-06-28 07:40:00,59.4,53.9,30.28,NW,318,0.0,0.0,82,0.00,,SCT,0.00,VWS V14.01,2013-06-28 14:40:00,
2013-06-28 07:45:00,59.5,54.0,30.28,NW,318,0.0,0.0,82,0.00,,SCT,0.00,VWS V14.01,2013-06-28 14:45:00,
2013-06-28 07:50:00,59.7,54.2,30.25,NW,318,0.0,0.0,82,0.00,,SCT,0.00,VWS V14.01,2013-06-28 14:50:00,
2013-06-28 07:55:00,59.9,54.4,30.25,NW,318,0.0,0.0,82,0.00,,SCT,0.00,VWS V14.01,2013-06-28 14:55:00,
2013-06-28 08:00:00,60.1,54.2,30.25,NW,318,0.0,0.0,81,0.00,,SCT,0.00,VWS V14.01,2013-06-28 15:00:00,
2013-06-28 08:05:00,60.3,54.4,30.25,NW,318,0.0,0.0,81,0.00,,SCT,0.00,VWS V14.01,2013-06-28 15:05:00,
2013-06-28 08:10:00,60.6,54.4,30.25,NW,318,0.0,0.0,80,0.00,,SCT,0.00,VWS V14.01,2013-06-28 15:10:00,
2013-06-28 08:15:00,60.6,54.4,30.25,NW,318,0.0,0.0,80,0.00,,SCT,0.00,VWS V14.01,2013-06-28 15:15:00,
2013-06-28 08:16:00,60.8,54.3,30.25,NW,318,0.0,0.0,79,0.00,,SCT,0.00,VWS V14.01,2013-06-28 15:16:00,
2013-06-28 08:21:00,61.0,54.4,30.25,NW,318,0.0,0.0,79,0.00,,SCT,0.00,VWS V14.01,2013-06-28 15:21:00,
2013-06-28 08:26:00,61.0,54.4,30.25,NW,318,0.0,0.0,79,0.00,,SCT,0.00,VWS V14.01,2013-06-28 15:26:00,
2013-06-28 08:30:00,61.3,54.8,30.25,NW,318,0.0,0.0,79,0.00,,SCT,0.00,VWS V14.01,2013-06-28 15:30:00,
2013-06-28 08:31:00,61.3,54.8,30.25,NW,318,0.0,0.0,79,0.00,,SCT,0.00,VWS V14.01,2013-06-28 15:31:00,
2013-06-28 08:36:00,61.5,54.6,30.25,NW,318,0.0,0.0,78,0.00,,SCT,0.00,VWS V14.01,2013-06-28 15:36:00,
2013-06-28 08:41:00,61.9,55.0,30.25,NW,310,0.0,0.0,78,0.00,,SCT,0.00,VWS V14.01,2013-06-28 15:41:00,
2013-06-28 08:45:00,62.1,54.8,30.25,ENE,59,0.0,0.0,77,0.00,,SCT,0.00,VWS V14.01,2013-06-28 15:45:00,
2013-06-28 08:46:00,62.2,55.0,30.25,ENE,59,0.0,0.0,77,0.00,,SCT,0.00,VWS V14.01,2013-06-28 15:46:00,
2013-06-28 08:51:00,62.6,54.9,30.25,NNW,332,0.0,0.0,76,0.00,,SCT,0.00,VWS V14.01,2013-06-28 15:51:00,
2013-06-28 08:56:00,63.0,54.5,30.25,NW,325,0.0,0.0,74,0.00,,SCT,0.00,VWS V14.01,2013-06-28 15:56:00,
2013-06-28 09:00:00,63.1,54.3,30.25,NW,324,0.0,0.0,73,0.00,,SCT,0.00,VWS V14.01,2013-06-28 16:00:00,
2013-06-28 09:01:00,63.3,54.5,30.25,NW,323,0.0,0.0,73,0.00,,SCT,0.00,VWS V14.01,2013-06-28 16:01:00,
2013-06-28 09:06:00,63.7,54.5,30.25,SW,224,0.0,0.0,72,0.00,,SCT,0.00,VWS V14.01,2013-06-28 16:06:00,
2013-06-28 09:11:00,64.2,54.6,30.25,SSE,154,0.0,0.0,71,0.00,,SCT,0.00,VWS V14.01,2013-06-28 16:11:00,
2013-06-28 09:15:00,64.4,54.8,30.25,SW,229,0.0,0.0,71,0.00,,SCT,0.00,VWS V14.01,2013-06-28 16:15:00,
2013-06-28 09:17:00,64.6,55.0,30.25,West,263,0.0,0.0,71,0.00,,SCT,0.00,VWS V14.01,2013-06-28 16:17:00,
2013-06-28 09:22:00,65.3,55.3,30.25,SW,218,0.0,0.0,70,0.00,,SCT,0.00,VWS V14.01,2013-06-28 16:22:00,
2013-06-28 09:27:00,65.5,55.0,30.25,NW,308,0.0,0.0,69,0.00,,SCT,0.00,VWS V14.01,2013-06-28 16:27:00,
2013-06-28 09:30:00,65.7,54.8,30.25,NNW,333,0.0,0.0,68,0.00,,SCT,0.00,VWS V14.01,2013-06-28 16:30:00,
2013-06-28 09:32:00,65.7,54.8,30.25,NNW,333,0.0,0.0,68,0.00,,SCT,0.00,VWS V14.01,2013-06-28 16:32:00,
2013-06-28 09:37:00,66.2,54.9,30.25,West,275,0.0,0.0,67,0.00,,SCT,0.00,VWS V14.01,2013-06-28 16:37:00,
2013-06-28 09:42:00,66.6,54.9,30.25,WSW,248,0.0,0.0,66,0.00,,SCT,0.00,VWS V14.01,2013-06-28 16:42:00,
2013-06-28 09:45:00,66.9,55.2,30.25,WSW,248,0.0,0.0,66,0.00,,SCT,0.00,VWS V14.01,2013-06-28 16:45:00,
2013-06-28 09:47:00,67.1,55.0,30.25,SE,131,0.0,0.0,65,0.00,,SCT,0.00,VWS V14.01,2013-06-28 16:47:00,
2013-06-28 09:52:00,67.8,54.8,30.25,East,92,0.0,4.0,63,0.00,,SCT,0.00,VWS V14.01,2013-06-28 16:52:00,
2013-06-28 09:57:00,68.4,55.7,30.25,ESE,103,0.0,4.0,64,0.00,,SCT,0.00,VWS V14.01,2013-06-28 16:57:00,
2013-06-28 10:00:00,68.9,55.4,30.25,SE,136,3.1,5.4,62,0.00,,SCT,0.00,VWS V14.01,2013-06-28 17:00:00,
2013-06-28 10:02:00,68.9,54.5,30.25,ESE,121,5.8,5.8,60,0.00,,SCT,0.00,VWS V14.01,2013-06-28 17:02:00,
2013-06-28 10:07:00,69.1,54.2,30.25,SSE,161,0.0,5.8,59,0.00,,SCT,0.00,VWS V14.01,2013-06-28 17:07:00,
2013-06-28 10:12:00,69.3,54.3,30.25,SSW,212,0.0,5.8,59,0.00,,SCT,0.00,VWS V14.01,2013-06-28 17:12:00,
2013-06-28 10:15:00,69.4,55.0,30.25,SE,128,0.0,5.8,60,0.00,,SCT,0.00,VWS V14.01,2013-06-28 17:15:00,
2013-06-28 10:18:00,69.8,54.8,30.25,East,96,2.7,3.1,59,0.00,,SCT,0.00,VWS V14.01,2013-06-28 17:18:00,
2013-06-28 10:23:00,70.7,54.2,30.25,SSE,159,0.0,3.1,56,0.00,,SCT,0.00,VWS V14.01,2013-06-28 17:23:00,
2013-06-28 10:28:00,70.9,52.9,30.25,SE,144,0.0,7.6,53,0.00,,SCT,0.00,VWS V14.01,2013-06-28 17:28:00,
2013-06-28 10:30:00,71.1,54.1,30.25,NE,52,0.0,7.6,55,0.00,,SCT,0.00,VWS V14.01,2013-06-28 17:30:00,
2013-06-28 10:33:00,71.4,52.9,30.25,NE,49,0.0,0.0,52,0.00,,SCT,0.00,VWS V14.01,2013-06-28 17:33:00,
2013-06-28 10:34:00,71.6,53.1,30.25,ESE,123,0.0,0.0,52,0.00,,SCT,0.00,VWS V14.01,2013-06-28 17:34:00,
2013-06-28 10:39:00,72.0,52.9,30.25,SSE,147,4.0,4.0,51,0.00,,SCT,0.00,VWS V14.01,2013-06-28 17:39:00,
2013-06-28 10:44:00,72.1,53.6,30.25,East,90,0.0,5.4,52,0.00,,SCT,0.00,VWS V14.01,2013-06-28 17:44:00,
2013-06-28 10:45:00,72.3,54.2,30.25,East,98,0.0,5.4,53,0.00,,SCT,0.00,VWS V14.01,2013-06-28 17:45:00,
2013-06-28 10:49:00,72.7,53.5,30.25,ESE,119,0.0,0.0,51,0.00,,SCT,0.00,VWS V14.01,2013-06-28 17:49:00,
2013-06-28 10:54:00,72.9,51.5,30.25,SW,214,0.0,0.0,47,0.00,,SCT,0.00,VWS V14.01,2013-06-28 17:54:00,
2013-06-28 10:59:00,73.2,52.9,30.25,ESE,106,0.0,0.0,49,0.00,,SCT,0.00,VWS V14.01,2013-06-28 17:59:00,
2013-06-28 11:00:00,73.4,53.1,30.25,ESE,108,0.0,0.0,49,0.00,,SCT,0.00,VWS V14.01,2013-06-28 18:00:00,
2013-06-28 11:04:00,74.1,50.8,30.25,ESE,108,0.0,6.3,44,0.00,,SCT,0.00,VWS V14.01,2013-06-28 18:04:00,
2013-06-28 11:09:00,74.3,51.0,30.25,ESE,108,0.0,6.3,44,0.00,,SCT,0.00,VWS V14.01,2013-06-28 18:09:00,
2013-06-28 11:14:00,74.8,52.7,30.25,South,185,0.0,6.3,46,0.00,,SCT,0.00,VWS V14.01,2013-06-28 18:14:00,
2013-06-28 11:15:00,74.8,52.7,30.25,NNW,333,0.0,6.3,46,0.00,,SCT,0.00,VWS V14.01,2013-06-28 18:15:00,
2013-06-28 11:19:00,75.0,52.9,30.25,SSW,193,0.0,3.6,46,0.00,,SCT,0.00,VWS V14.01,2013-06-28 18:19:00,
2013-06-28 11:24:00,75.4,50.7,30.25,SSE,151,2.2,3.6,42,0.00,,SCT,0.00,VWS V14.01,2013-06-28 18:24:00,
2013-06-28 11:29:00,75.6,50.2,30.25,South,176,0.0,6.3,41,0.00,,SCT,0.00,VWS V14.01,2013-06-28 18:29:00,
2013-06-28 11:30:00,75.7,51.0,30.25,South,176,0.0,6.3,42,0.00,,SCT,0.00,VWS V14.01,2013-06-28 18:30:00,
2013-06-28 11:35:00,76.3,51.5,30.25,ENE,61,0.0,4.9,42,0.00,,SCT,0.00,VWS V14.01,2013-06-28 18:35:00,
2013-06-28 11:40:00,77.0,50.9,30.25,SE,127,3.6,5.8,40,0.00,,SCT,0.00,VWS V14.01,2013-06-28 18:40:00,
2013-06-28 11:45:00,77.5,50.7,30.25,ESE,119,2.2,4.0,39,0.00,,SCT,0.00,VWS V14.01,2013-06-28 18:45:00,
2013-06-28 11:50:00,77.7,50.8,30.25,ENE,70,0.0,6.3,39,0.00,,SCT,0.00,VWS V14.01,2013-06-28 18:50:00,
2013-06-28 11:55:00,78.3,49.1,30.25,South,187,0.0,6.3,36,0.00,,SCT,0.00,VWS V14.01,2013-06-28 18:55:00,
2013-06-28 12:00:00,78.4,49.3,30.25,SE,131,0.0,0.0,36,0.00,,SCT,0.00,VWS V14.01,2013-06-28 19:00:00,
2013-06-28 12:05:00,78.6,50.2,30.22,SE,131,0.0,0.0,37,0.00,,SCT,0.00,VWS V14.01,2013-06-28 19:05:00,
2013-06-28 12:10:00,79.0,49.0,30.22,SSE,147,0.0,0.0,35,0.00,,SCT,0.00,VWS V14.01,2013-06-28 19:10:00,
2013-06-28 12:15:00,79.5,51.0,30.22,SE,131,0.0,0.0,37,0.00,,SCT,0.00,VWS V14.01,2013-06-28 19:15:00,
2013-06-28 12:20:00,80.6,49.7,30.22,ESE,111,0.0,5.8,34,0.00,,SCT,0.00,VWS V14.01,2013-06-28 19:20:00,
2013-06-28 12:25:00,81.1,50.1,30.22,ENE,61,0.0,5.8,34,0.00,,SCT,0.00,VWS V14.01,2013-06-28 19:25:00,
2013-06-28 12:30:00,81.7,49.8,30.22,SE,130,0.0,3.1,33,0.00,,SCT,0.00,VWS V14.01,2013-06-28 19:30:00,
2013-06-28 12:35:00,81.5,48.8,30.22,SE,131,0.0,3.1,32,0.00,,SCT,0.00,VWS V14.01,2013-06-28 19:35:00,
2013-06-28 12:40:00,81.9,49.1,30.22,South,186,0.0,3.1,32,0.00,,SCT,0.00,VWS V14.01,2013-06-28 19:40:00,
2013-06-28 12:45:00,82.0,48.5,30.22,NW,311,0.0,0.0,31,0.00,,SCT,0.00,VWS V14.01,2013-06-28 19:45:00,
2013-06-28 12:50:00,82.8,48.2,30.22,SSE,161,0.0,0.0,30,0.00,,SCT,0.00,VWS V14.01,2013-06-28 19:50:00,
2013-06-28 12:55:00,83.7,49.0,30.22,SE,134,2.7,5.8,30,0.00,,SCT,0.00,VWS V14.01,2013-06-28 19:55:00,
2013-06-28 13:00:00,84.0,49.3,30.22,SE,130,0.0,5.8,30,0.00,,SCT,0.00,VWS V14.01,2013-06-28 20:00:00,
2013-06-28 13:01:00,84.0,49.3,30.22,NNE,27,0.0,0.0,30,0.00,,SCT,0.00,VWS V14.01,2013-06-28 20:01:00,
2013-06-28 13:06:00,84.2,48.5,30.22,ENE,76,0.0,4.0,29,0.00,,SCT,0.00,VWS V14.01,2013-06-28 20:06:00,
2013-06-28 13:11:00,85.1,49.3,30.22,NW,317,0.0,5.4,29,0.00,,SCT,0.00,VWS V14.01,2013-06-28 20:11:00,
2013-06-28 13:15:00,85.5,49.6,30.22,SE,125,0.0,5.4,29,0.00,,SCT,0.00,VWS V14.01,2013-06-28 20:15:00,
2013-06-28 13:16:00,85.6,49.8,30.22,SE,125,0.0,0.0,29,0.00,,SCT,0.00,VWS V14.01,2013-06-28 20:16:00,
2013-06-28 13:21:00,86.4,50.4,30.22,SSW,198,0.0,0.0,29,0.00,,SCT,0.00,VWS V14.01,2013-06-28 20:21:00,
2013-06-28 13:26:00,86.4,49.4,30.22,SE,142,3.1,4.9,28,0.00,,SCT,0.00,VWS V14.01,2013-06-28 20:26:00,
2013-06-28 13:30:00,86.2,49.3,30.22,ESE,122,4.0,6.3,28,0.00,,SCT,0.00,VWS V14.01,2013-06-28 20:30:00,
2013-06-28 13:31:00,86.2,49.3,30.22,SE,139,3.6,4.0,28,0.00,,SCT,0.00,VWS V14.01,2013-06-28 20:31:00,
2013-06-28 13:36:00,86.7,49.8,30.22,ENE,71,0.0,6.3,28,0.00,,SCT,0.00,VWS V14.01,2013-06-28 20:36:00,
2013-06-28 13:41:00,87.1,49.1,30.22,ESE,115,3.6,6.3,27,0.00,,SCT,0.00,VWS V14.01,2013-06-28 20:41:00,
2013-06-28 13:45:00,87.1,49.1,30.22,South,172,0.0,6.3,27,0.00,,SCT,0.00,VWS V14.01,2013-06-28 20:45:00,
2013-06-28 13:46:00,87.1,49.1,30.22,South,171,0.0,0.0,27,0.00,,SCT,0.00,VWS V14.01,2013-06-28 20:46:00,
2013-06-28 13:51:00,87.6,49.5,30.19,NE,39,0.0,3.1,27,0.00,,SCT,0.00,VWS V14.01,2013-06-28 20:51:00,
2013-06-28 13:56:00,87.8,49.7,30.19,West,272,0.0,4.0,27,0.00,,SCT,0.00,VWS V14.01,2013-06-28 20:56:00,
2013-06-28 14:00:00,88.2,49.0,30.19,West,281,0.0,4.0,26,0.00,,SCT,0.00,VWS V14.01,2013-06-28 21:00:00,
2013-06-28 14:02:00,88.5,48.2,30.19,WNW,282,0.0,0.0,25,0.00,,SCT,0.00,VWS V14.01,2013-06-28 21:02:00,
2013-06-28 14:07:00,89.2,48.8,30.19,NNW,336,0.0,0.0,25,0.00,,SCT,0.00,VWS V14.01,2013-06-28 21:07:00,
2013-06-28 14:12:00,89.2,48.8,30.19,NW,315,0.0,0.0,25,0.00,,SCT,0.00,VWS V14.01,2013-06-28 21:12:00,
2013-06-28 14:15:00,89.4,49.0,30.19,SW,226,0.0,4.0,25,0.00,,SCT,0.00,VWS V14.01,2013-06-28 21:15:00,
2013-06-28 14:17:00,89.4,47.9,30.19,West,263,4.0,4.0,24,0.00,,SCT,0.00,VWS V14.01,2013-06-28 21:17:00,
2013-06-28 14:22:00,89.6,49.2,30.19,WSW,250,0.0,4.9,25,0.00,,SCT,0.00,VWS V14.01,2013-06-28 21:22:00,
2013-06-28 14:27:00,90.3,49.8,30.19,SW,221,0.0,5.4,25,0.00,,SCT,0.00,VWS V14.01,2013-06-28 21:27:00,
2013-06-28 14:30:00,90.3,49.8,30.19,NNW,330,7.2,7.2,25,0.00,,SCT,0.00,VWS V14.01,2013-06-28 21:30:00,
2013-06-28 14:32:00,90.7,50.1,30.19,WNW,298,0.0,7.2,25,0.00,,SCT,0.00,VWS V14.01,2013-06-28 21:32:00,
2013-06-28 14:37:00,91.2,49.4,30.19,West,281,0.0,7.2,24,0.00,,SCT,0.00,VWS V14.01,2013-06-28 21:37:00,
2013-06-28 14:42:00,91.6,48.6,30.19,SSE,159,0.0,8.1,23,0.00,,SCT,0.00,VWS V14.01,2013-06-28 21:42:00,
2013-06-28 14:45:00,91.4,49.6,30.19,East,92,0.0,8.1,24,0.00,,SCT,0.00,VWS V14.01,2013-06-28 21:45:00,
2013-06-28 14:47:00,91.2,49.4,30.19,ESE,120,0.0,0.0,24,0.00,,SCT,0.00,VWS V14.01,2013-06-28 21:47:00,
2013-06-28 14:52:00,90.5,47.7,30.19,East,82,0.0,5.8,23,0.00,,SCT,0.00,VWS V14.01,2013-06-28 21:52:00,
2013-06-28 14:57:00,91.4,48.4,30.19,NNW,345,0.0,5.8,23,0.00,,SCT,0.00,VWS V14.01,2013-06-28 21:57:00,
2013-06-28 15:00:00,91.8,48.7,30.19,ENE,71,0.0,5.8,23,0.00,,SCT,0.00,VWS V14.01,2013-06-28 22:00:00,
2013-06-28 15:02:00,92.1,49.0,30.19,SSE,151,0.0,0.0,23,0.00,,SCT,0.00,VWS V14.01,2013-06-28 22:02:00,
2013-06-28 15:07:00,92.5,48.2,30.19,SE,129,0.0,0.0,22,0.00,,SCT,0.00,VWS V14.01,2013-06-28 22:07:00,
2013-06-28 15:12:00,92.8,48.4,30.19,SSE,154,0.0,0.0,22,0.00,,SCT,0.00,VWS V14.01,2013-06-28 22:12:00,
2013-06-28 15:15:00,92.8,48.4,30.19,East,96,0.0,0.0,22,0.00,,SCT,0.00,VWS V14.01,2013-06-28 22:15:00,
2013-06-28 15:17:00,92.8,48.4,30.19,NW,325,4.0,4.0,22,0.00,,SCT,0.00,VWS V14.01,2013-06-28 22:17:00,
2013-06-28 15:23:00,93.4,48.9,30.19,SE,136,0.0,4.0,22,0.00,,SCT,0.00,VWS V14.01,2013-06-28 22:23:00,
2013-06-28 15:28:00,93.9,49.3,30.19,South,169,0.0,4.0,22,0.00,,SCT,0.00,VWS V14.01,2013-06-28 22:28:00,
2013-06-28 15:30:00,93.9,49.3,30.19,South,178,0.0,4.0,22,0.00,,SCT,0.00,VWS V14.01,2013-06-28 22:30:00,
2013-06-28 15:33:00,93.9,48.1,30.19,SE,144,0.0,0.0,21,0.00,,SCT,0.00,VWS V14.01,2013-06-28 22:33:00,
2013-06-28 15:38:00,93.4,48.9,30.19,ESE,121,0.0,4.9,22,0.00,,SCT,0.00,VWS V14.01,2013-06-28 22:38:00,
2013-06-28 15:43:00,93.0,47.3,30.19,SE,129,0.0,4.9,21,0.00,,SCT,0.00,VWS V14.01,2013-06-28 22:43:00,
2013-06-28 15:45:00,92.8,48.4,30.19,SSW,205,2.7,4.9,22,0.00,,SCT,0.00,VWS V14.01,2013-06-28 22:45:00,
2013-06-28 15:48:00,92.8,48.4,30.19,North,353,0.0,2.7,22,0.00,,SCT,0.00,VWS V14.01,2013-06-28 22:48:00,
2013-06-28 15:53:00,93.4,47.7,30.16,NNE,26,0.0,2.7,21,0.00,,SCT,0.00,VWS V14.01,2013-06-28 22:53:00,
2013-06-28 15:58:00,93.0,48.6,30.16,South,176,0.0,2.7,22,0.00,,SCT,0.00,VWS V14.01,2013-06-28 22:58:00,
2013-06-28 16:00:00,92.8,48.4,30.16,South,176,0.0,2.7,22,0.00,,SCT,0.00,VWS V14.01,2013-06-28 23:00:00,
2013-06-28 16:03:00,92.3,48.0,30.16,SSE,166,0.0,0.0,22,0.00,,SCT,0.00,VWS V14.01,2013-06-28 23:03:00,
2013-06-28 16:08:00,92.8,47.2,30.16,NNW,329,0.0,0.0,21,0.00,,SCT,0.00,VWS V14.01,2013-06-28 23:08:00,
2013-06-28 16:14:00,93.4,47.7,30.16,WSW,255,0.0,4.0,21,0.00,,SCT,0.00,VWS V14.01,2013-06-28 23:14:00,
2013-06-28 16:15:00,93.2,48.7,30.16,NW,305,6.3,6.3,22,0.00,,SCT,0.00,VWS V14.01,2013-06-28 23:15:00,
2013-06-28 16:19:00,93.2,47.5,30.16,NNW,329,4.0,7.2,21,0.00,,SCT,0.00,VWS V14.01,2013-06-28 23:19:00,
2013-06-28 16:24:00,92.7,47.1,30.16,East,89,0.0,7.2,21,0.00,,SCT,0.00,VWS V14.01,2013-06-28 23:24:00,
2013-06-28 16:29:00,92.3,48.0,30.16,NW,323,0.0,7.2,22,0.00,,SCT,0.00,VWS V14.01,2013-06-28 23:29:00,
2013-06-28 16:30:00,92.3,48.0,30.16,NW,306,3.6,7.2,22,0.00,,SCT,0.00,VWS V14.01,2013-06-28 23:30:00,
2013-06-28 16:34:00,92.8,47.2,30.16,NNW,334,0.0,4.0,21,0.00,,SCT,0.00,VWS V14.01,2013-06-28 23:34:00,
2013-06-28 16:39:00,93.0,47.3,30.16,ENE,73,0.0,4.5,21,0.00,,SCT,0.00,VWS V14.01,2013-06-28 23:39:00,
2013-06-28 16:44:00,93.2,47.5,30.16,NW,317,0.0,4.5,21,0.00,,SCT,0.00,VWS V14.01,2013-06-28 23:44:00,
2013-06-28 16:45:00,93.2,47.5,30.16,NNW,329,0.0,4.5,21,0.00,,SCT,0.00,VWS V14.01,2013-06-28 23:45:00,
2013-06-28 16:49:00,93.6,47.8,30.16,East,95,0.0,6.3,21,0.00,,SCT,0.00,VWS V14.01,2013-06-28 23:49:00,
2013-06-28 16:54:00,93.7,48.0,30.16,WNW,290,0.0,6.3,21,0.00,,SCT,0.00,VWS V14.01,2013-06-28 23:54:00,
2013-06-28 16:59:00,93.2,47.5,30.16,South,179,0.0,6.3,21,0.00,,SCT,0.00,VWS V14.01,2013-06-28 23:59:00,
2013-06-28 17:00:00,93.2,46.2,30.16,South,181,0.0,0.0,20,0.00,,SCT,0.00,VWS V14.01,2013-06-29 00:00:00,
2013-06-28 17:05:00,92.8,47.2,30.16,East,101,2.7,10.1,21,0.00,,SCT,0.00,VWS V14.01,2013-06-29 00:05:00,
2013-06-28 17:10:00,92.1,46.6,30.16,NW,312,0.0,10.1,21,0.00,,SCT,0.00,VWS V14.01,2013-06-29 00:10:00,
2013-06-28 17:15:00,92.1,46.6,30.16,NNW,346,2.2,5.8,21,0.00,,SCT,0.00,VWS V14.01,2013-06-29 00:15:00,
2013-06-28 17:20:00,91.9,46.5,30.16,WNW,289,0.0,5.8,21,0.00,,SCT,0.00,VWS V14.01,2013-06-29 00:20:00,
2013-06-28 17:25:00,91.9,46.5,30.16,NNW,334,0.0,9.6,21,0.00,,SCT,0.00,VWS V14.01,2013-06-29 00:25:00,
2013-06-28 17:30:00,92.3,46.8,30.16,ESE,104,3.1,9.6,21,0.00,,SCT,0.00,VWS V14.01,2013-06-29 00:30:00,
2013-06-28 17:31:00,92.3,46.8,30.16,North,350,0.0,3.1,21,0.00,,SCT,0.00,VWS V14.01,2013-06-29 00:31:00,
2013-06-28 17:36:00,92.5,46.9,30.16,NNW,335,0.0,6.3,21,0.00,,SCT,0.00,VWS V14.01,2013-06-29 00:36:00,
2013-06-28 17:41:00,92.3,46.8,30.16,NNW,333,5.8,7.6,21,0.00,,SCT,0.00,VWS V14.01,2013-06-29 00:41:00,
2013-06-28 17:45:00,91.9,46.5,30.16,NE,36,0.0,7.6,21,0.00,,SCT,0.00,VWS V14.01,2013-06-29 00:45:00,
2013-06-28 17:46:00,91.9,46.5,30.16,WSW,241,0.0,0.0,21,0.00,,SCT,0.00,VWS V14.01,2013-06-29 00:46:00,
2013-06-28 17:51:00,92.5,46.9,30.16,NW,324,6.7,6.7,21,0.00,,SCT,0.00,VWS V14.01,2013-06-29 00:51:00,
2013-06-28 17:56:00,92.3,46.8,30.16,NNW,341,8.1,8.3,21,0.00,,SCT,0.00,VWS V14.01,2013-06-29 00:56:00,
2013-06-28 18:00:00,92.1,46.6,30.16,NNW,348,3.1,8.3,21,0.00,,SCT,0.00,VWS V14.01,2013-06-29 01:00:00,
2013-06-28 18:01:00,91.9,46.5,30.16,WNW,286,0.0,3.1,21,0.00,,SCT,0.00,VWS V14.01,2013-06-29 01:01:00,
2013-06-28 18:06:00,92.1,46.6,30.16,NNW,328,0.0,5.8,21,0.00,,SCT,0.00,VWS V14.01,2013-06-29 01:06:00,
2013-06-28 18:11:00,92.3,46.8,30.16,North,353,5.8,6.3,21,0.00,,SCT,0.00,VWS V14.01,2013-06-29 01:11:00,
2013-06-28 18:15:00,92.1,46.6,30.16,WNW,303,5.8,6.3,21,0.00,,SCT,0.00,VWS V14.01,2013-06-29 01:15:00,
2013-06-28 18:16:00,92.3,46.8,30.16,West,279,3.6,5.8,21,0.00,,SCT,0.00,VWS V14.01,2013-06-29 01:16:00,
2013-06-28 18:22:00,92.3,46.8,30.16,NW,306,6.3,8.3,21,0.00,,SCT,0.00,VWS V14.01,2013-06-29 01:22:00,
2013-06-28 18:27:00,92.1,46.6,30.16,NNW,327,4.0,8.7,21,0.00,,SCT,0.00,VWS V14.01,2013-06-29 01:27:00,
2013-06-28 18:30:00,92.1,46.6,30.16,NW,324,0.0,8.7,21,0.00,,SCT,0.00,VWS V14.01,2013-06-29 01:30:00,
2013-06-28 18:32:00,92.1,46.6,30.16,WNW,287,3.1,4.9,21,0.00,,SCT,0.00,VWS V14.01,2013-06-29 01:32:00,
2013-06-28 18:37:00,91.4,46.0,30.16,WNW,303,0.0,9.2,21,0.00,,SCT,0.00,VWS V14.01,2013-06-29 01:37:00,
2013-06-28 18:42:00,90.5,46.5,30.16,NNW,338,3.1,9.2,22,0.00,,SCT,0.00,VWS V14.01,2013-06-29 01:42:00,
2013-06-28 18:45:00,90.0,46.1,30.16,NNW,335,5.4,9.2,22,0.00,,SCT,0.00,VWS V14.01,2013-06-29 01:45:00,
2013-06-28 18:47:00,89.6,45.8,30.16,WNW,288,3.1,5.4,22,0.00,,SCT,0.00,VWS V14.01,2013-06-29 01:47:00,
2013-06-28 18:52:00,89.4,46.8,30.16,WSW,253,0.0,7.2,23,0.00,,SCT,0.00,VWS V14.01,2013-06-29 01:52:00,
2013-06-28 18:57:00,89.6,48.1,30.16,WNW,302,5.8,7.2,24,0.00,,SCT,0.00,VWS V14.01,2013-06-29 01:57:00,
2013-06-28 19:00:00,89.8,47.1,30.16,WNW,283,3.6,7.2,23,0.00,,SCT,0.00,VWS V14.01,2013-06-29 02:00:00,
2013-06-28 19:02:00,89.8,48.2,30.16,NNW,328,0.0,4.0,24,0.00,,SCT,0.00,VWS V14.01,2013-06-29 02:02:00,
2013-06-28 19:07:00,89.2,48.8,30.16,NW,306,4.0,8.7,25,0.07,,SCT,0.07,VWS V14.01,2013-06-29 02:07:00,
2013-06-28 19:12:00,88.2,50.0,30.16,NNE,15,4.9,8.7,27,0.07,,SCT,0.07,VWS V14.01,2013-06-29 02:12:00,
2013-06-28 19:15:00,87.3,49.2,30.16,West,266,4.0,8.7,27,0.07,,SCT,0.07,VWS V14.01,2013-06-29 02:15:00,
2013-06-28 19:17:00,86.9,49.9,30.16,West,281,0.0,7.2,28,0.07,,SCT,0.07,VWS V14.01,2013-06-29 02:17:00,
2013-06-28 19:23:00,85.6,49.8,30.16,NW,322,4.5,10.1,29,0.07,,SCT,0.07,VWS V14.01,2013-06-29 02:23:00,
2013-06-28 19:28:00,84.9,50.9,30.16,NW,320,2.7,10.1,31,0.07,,SCT,0.07,VWS V14.01,2013-06-29 02:28:00,
2013-06-28 19:30:00,84.7,50.8,30.16,NNW,335,5.4,10.1,31,0.07,,SCT,0.07,VWS V14.01,2013-06-29 02:30:00,
2013-06-28 19:33:00,84.2,51.2,30.16,West,279,0.0,8.3,32,0.07,,SCT,0.07,VWS V14.01,2013-06-29 02:33:00,
2013-06-28 19:38:00,83.7,52.3,30.16,WSW,252,2.7,8.3,34,0.07,,SCT,0.07,VWS V14.01,2013-06-29 02:38:00,
2013-06-28 19:43:00,83.3,53.6,30.16,WNW,303,3.6,8.3,36,0.07,,SCT,0.07,VWS V14.01,2013-06-29 02:43:00,
2013-06-28 19:45:00,83.1,53.4,30.16,WNW,286,6.3,8.3,36,0.07,,SCT,0.07,VWS V14.01,2013-06-29 02:45:00,
2013-06-28 19:48:00,82.9,53.3,30.16,West,281,4.0,9.6,36,0.07,,SCT,0.07,VWS V14.01,2013-06-29 02:48:00,
2013-06-28 19:53:00,82.8,53.9,30.16,NW,305,4.0,9.6,37,0.07,,SCT,0.07,VWS V14.01,2013-06-29 02:53:00,
2013-06-28 19:58:00,82.6,54.4,30.16,WNW,284,4.9,9.6,38,0.07,,SCT,0.07,VWS V14.01,2013-06-29 02:58:00,
2013-06-28 20:00:00,82.4,54.3,30.16,NW,317,3.6,9.6,38,0.07,,SCT,0.07,VWS V14.01,2013-06-29 03:00:00,
2013-06-28 20:03:00,81.9,54.5,30.16,West,275,2.2,8.1,39,0.07,,SCT,0.07,VWS V14.01,2013-06-29 03:03:00,
2013-06-28 20:08:00,81.1,54.5,30.16,WNW,294,3.1,8.1,40,0.07,,SCT,0.07,VWS V14.01,2013-06-29 03:08:00,
2013-06-28 20:13:00,80.8,54.2,30.16,NW,312,4.0,8.1,40,0.07,,SCT,0.07,VWS V14.01,2013-06-29 03:13:00,
2013-06-28 20:15:00,80.8,54.2,30.16,West,275,0.0,8.1,40,0.07,,SCT,0.07,VWS V14.01,2013-06-29 03:15:00,
2013-06-28 20:18:00,80.4,54.6,30.16,WNW,290,0.0,0.0,41,0.00,,SCT,0.07,VWS V14.01,2013-06-29 03:18:00,
2013-06-28 20:24:00,80.1,54.3,30.16,NW,321,3.6,6.3,41,0.00,,SCT,0.07,VWS V14.01,2013-06-29 03:24:00,
2013-06-28 20:29:00,79.7,53.9,30.16,WNW,291,0.0,6.3,41,0.00,,SCT,0.07,VWS V14.01,2013-06-29 03:29:00,
2013-06-28 20:30:00,79.7,53.9,30.16,NW,308,2.7,6.3,41,0.00,,SCT,0.07,VWS V14.01,2013-06-29 03:30:00,
2013-06-28 20:34:00,79.7,54.6,30.16,NNW,335,2.7,3.1,42,0.00,,SCT,0.07,VWS V14.01,2013-06-29 03:34:00,
2013-06-28 20:39:00,79.3,54.3,30.16,NW,318,0.0,6.3,42,0.00,,SCT,0.07,VWS V14.01,2013-06-29 03:39:00,
2013-06-28 20:44:00,79.0,54.0,30.16,NW,322,5.4,6.3,42,0.00,,SCT,0.07,VWS V14.01,2013-06-29 03:44:00,
2013-06-28 20:45:00,79.0,54.0,30.16,NW,325,0.0,6.3,42,0.00,,SCT,0.07,VWS V14.01,2013-06-29 03:45:00,
2013-06-28 20:49:00,78.6,54.3,30.16,WNW,294,0.0,6.3,43,0.00,,SCT,0.07,VWS V14.01,2013-06-29 03:49:00,
2013-06-28 20:54:00,78.3,54.0,30.16,NW,316,0.0,6.3,43,0.00,,SCT,0.07,VWS V14.01,2013-06-29 03:54:00,
2013-06-28 20:59:00,77.9,54.3,30.16,NNW,333,6.3,6.3,44,0.00,,SCT,0.07,VWS V14.01,2013-06-29 03:59:00,
2013-06-28 21:00:00,77.9,54.3,30.16,NNW,333,0.0,6.3,44,0.00,,SCT,0.07,VWS V14.01,2013-06-29 04:00:00,
2013-06-28 21:01:00,77.9,54.3,30.16,NW,311,0.0,3.6,44,0.00,,SCT,0.07,VWS V14.01,2013-06-29 04:01:00,
2013-06-28 21:02:00,77.7,54.1,30.16,NNW,335,0.0,3.6,44,0.00,,SCT,0.07,VWS V14.01,2013-06-29 04:02:00,
2013-06-28 21:03:00,77.7,54.1,30.16,WNW,287,0.0,3.6,44,0.00,,SCT,0.07,VWS V14.01,2013-06-29 04:03:00,
2013-06-28 21:08:00,77.4,53.8,30.16,NNW,341,0.0,5.8,44,0.00,,SCT,0.07,VWS V14.01,2013-06-29 04:08:00,
2013-06-28 21:13:00,76.8,54.5,30.16,NW,326,3.1,7.6,46,0.00,,SCT,0.07,VWS V14.01,2013-06-29 04:13:00,
2013-06-28 21:15:00,76.6,54.3,30.16,WNW,302,0.0,7.6,46,0.00,,SCT,0.07,VWS V14.01,2013-06-29 04:15:00,
2013-06-28 21:18:00,76.3,54.6,30.16,NW,323,0.0,4.0,47,0.00,,SCT,0.07,VWS V14.01,2013-06-29 04:18:00,
2013-06-28 21:23:00,76.1,55.0,30.19,NNW,336,0.0,4.0,48,0.00,,SCT,0.07,VWS V14.01,2013-06-29 04:23:00,
2013-06-28 21:28:00,75.7,55.2,30.19,NNW,327,3.1,5.4,49,0.00,,SCT,0.07,VWS V14.01,2013-06-29 04:28:00,
2013-06-28 21:30:00,75.6,55.6,30.19,NW,316,0.0,5.8,50,0.00,,SCT,0.07,VWS V14.01,2013-06-29 04:30:00,
2013-06-28 21:33:00,75.4,55.5,30.19,NNW,335,0.0,5.4,50,0.00,,SCT,0.07,VWS V14.01,2013-06-29 04:33:00,
2013-06-28 21:38:00,75.0,56.2,30.19,NW,316,2.7,5.4,52,0.00,,SCT,0.07,VWS V14.01,2013-06-29 04:38:00,
2013-06-28 21:43:00,74.8,56.0,30.19,North,349,0.0,6.3,52,0.00,,SCT,0.07,VWS V14.01,2013-06-29 04:43:00,
2013-06-28 21:45:00,74.8,56.6,30.19,North,353,0.0,6.3,53,0.00,,SCT,0.07,VWS V14.01,2013-06-29 04:45:00,
2013-06-28 21:49:00,74.7,56.4,30.19,NW,319,0.0,5.4,53,0.00,,SCT,0.07,VWS V14.01,2013-06-29 04:49:00,
2013-06-28 21:54:00,74.3,56.1,30.19,NNW,332,3.1,7.6,53,0.00,,SCT,0.07,VWS V14.01,2013-06-29 04:54:00,
2013-06-28 21:59:00,74.1,56.4,30.19,SW,231,0.0,7.6,54,0.00,,SCT,0.07,VWS V14.01,2013-06-29 04:59:00,
2013-06-28 22:00:00,74.1,56.4,30.19,NW,326,0.0,7.6,54,0.00,,SCT,0.07,VWS V14.01,2013-06-29 05:00:00,
2013-06-28 22:04:00,73.9,56.3,30.19,NNW,327,0.0,5.8,54,0.00,,SCT,0.07,VWS V14.01,2013-06-29 05:04:00,
2013-06-28 22:09:00,73.6,56.4,30.19,WSW,251,0.0,5.8,55,0.00,,SCT,0.07,VWS V14.01,2013-06-29 05:09:00,
2013-06-28 22:14:00,73.4,56.3,30.19,West,278,0.0,5.8,55,0.00,,SCT,0.07,VWS V14.01,2013-06-29 05:14:00,
2013-06-28 22:15:00,73.4,56.3,30.19,West,277,0.0,5.8,55,0.00,,SCT,0.07,VWS V14.01,2013-06-29 05:15:00,
2013-06-28 22:19:00,73.0,56.4,30.19,WSW,241,2.2,4.9,56,0.00,,SCT,0.07,VWS V14.01,2013-06-29 05:19:00,
2013-06-28 22:24:00,72.9,56.3,30.19,NNW,328,2.7,5.4,56,0.00,,SCT,0.07,VWS V14.01,2013-06-29 05:24:00,
2013-06-28 22:29:00,72.7,56.6,30.19,NNW,333,0.0,6.3,57,0.00,,SCT,0.07,VWS V14.01,2013-06-29 05:29:00,
2013-06-28 22:30:00,72.5,56.4,30.19,NNW,340,0.0,6.3,57,0.00,,SCT,0.07,VWS V14.01,2013-06-29 05:30:00,
2013-06-28 22:34:00,72.3,56.7,30.19,West,276,3.6,4.9,58,0.00,,SCT,0.07,VWS V14.01,2013-06-29 05:34:00,
2013-06-28 22:40:00,72.1,57.0,30.19,NNW,332,0.0,5.4,59,0.00,,SCT,0.07,VWS V14.01,2013-06-29 05:40:00,
2013-06-28 22:45:00,72.0,56.9,30.19,West,281,0.0,5.4,59,0.00,,SCT,0.07,VWS V14.01,2013-06-29 05:45:00,
2013-06-28 22:50:00,71.8,56.7,30.19,NNW,340,0.0,0.0,59,0.00,,SCT,0.07,VWS V14.01,2013-06-29 05:50:00,
2013-06-28 22:55:00,71.4,56.8,30.19,NNW,330,0.0,4.9,60,0.00,,SCT,0.07,VWS V14.01,2013-06-29 05:55:00,
2013-06-28 23:00:00,71.4,57.3,30.19,West,276,0.0,0.0,61,0.00,,SCT,0.07,VWS V14.01,2013-06-29 06:00:00,
2013-06-28 23:05:00,71.2,57.1,30.19,WNW,290,3.1,4.0,61,0.00,,SCT,0.07,VWS V14.01,2013-06-29 06:05:00,
2013-06-28 23:10:00,71.1,57.0,30.19,NNW,332,0.0,4.0,61,0.00,,SCT,0.07,VWS V14.01,2013-06-29 06:10:00,
2013-06-28 23:15:00,70.9,57.2,30.19,NW,323,0.0,0.0,62,0.00,,SCT,0.07,VWS V14.01,2013-06-29 06:15:00,
2013-06-28 23:20:00,70.7,57.1,30.19,NNW,341,0.0,6.3,62,0.00,,SCT,0.07,VWS V14.01,2013-06-29 06:20:00,
2013-06-28 23:25:00,70.7,56.6,30.19,WNW,303,0.0,6.3,61,0.00,,SCT,0.07,VWS V14.01,2013-06-29 06:25:00,
2013-06-28 23:30:00,70.7,56.6,30.19,NW,309,0.0,0.0,61,0.00,,SCT,0.07,VWS V14.01,2013-06-29 06:30:00,
2013-06-28 23:36:00,70.5,56.4,30.19,NW,308,0.0,3.6,61,0.00,,SCT,0.07,VWS V14.01,2013-06-29 06:36:00,
2013-06-28 23:41:00,70.5,56.4,30.19,NW,320,0.0,6.3,61,0.00,,SCT,0.07,VWS V14.01,2013-06-29 06:41:00,
2013-06-28 23:45:00,70.3,55.8,30.19,NW,318,0.0,6.3,60,0.00,,SCT,0.07,VWS V14.01,2013-06-29 06:45:00,
2013-06-28 23:46:00,70.3,55.8,30.19,NNW,330,5.4,5.4,60,0.00,,SCT,0.07,VWS V14.01,2013-06-29 06:46:00,
2013-06-28 23:51:00,70.3,55.8,30.19,NW,310,0.0,5.4,60,0.00,,SCT,0.07,VWS V14.01,2013-06-29 06:51:00,
2013-06-28 23:56:00,70.3,55.8,30.19,NW,322,0.0,5.4,60,0.00,,SCT,0.07,VWS V14.01,2013-06-29 06:56:00,